Haci Arif Kaptan — TCQQ — position and weather

sailwx.info

Track history (hours):
 
Tides and Currents Weather Stations Pressure Air Temp Water Temp Dewpoint Dewpoint Depression Visibility Wind Speed Wind Dir Waves Ship Positions

Haci Arif Kaptan

Last reported at 2014-Aug-27 20:27 UTC. Time now 2014-Aug-29 10:24 UTC.
Position N 32°49' E 035°02'.

Length 130 m; draft 8.1 m.

Type: Ship. MMSI: 271000494.

Date/timePositionNaut miles runAvg speedWind from/ knotsBaromVisibWave heightAir tempDewpointWater temp
2014-Aug-27 20:27N 32°49' E 035°02'0 0.0
2014-Aug-27 19:30N 32°49' E 035°02'0 0.0
2014-Aug-27 18:21N 32°49' E 035°02'0 0.0
2014-Aug-27 17:24N 32°49' E 035°02'0 0.0
2014-Aug-27 16:33N 32°49' E 035°02'0 0.0
2014-Aug-27 14:27N 32°49' E 035°02'0 0.0
2014-Aug-27 09:24N 32°49' E 035°02'0 0.0
2014-Aug-26 23:12N 32°49' E 035°02'0 0.0
2014-Aug-26 22:15N 32°49' E 035°02'0 0.0
2014-Aug-26 21:33N 32°49' E 035°02'0 0.0
2014-Aug-26 20:32N 32°49' E 035°02'0 0.0
2014-Aug-26 18:26N 32°49' E 035°02'0 0.0
2014-Aug-26 17:29N 32°49' E 035°02'0 0.0
2014-Aug-26 16:29N 32°49' E 035°02'0 0.0
2014-Aug-26 15:32N 32°49' E 035°02'0 0.0
2014-Aug-26 14:26N 32°49' E 035°02'0 0.0
2014-Aug-26 03:11N 32°49' E 035°02'0 0.0
2014-Aug-26 02:33N 32°49' E 035°02'4 2.4
2014-Aug-26 01:04N 32°52' E 035°00'0 0.0
2014-Aug-26 00:31N 32°52' E 035°00'0 0.0
2014-Aug-25 22:26N 32°52' E 035°00'1 0.7
2014-Aug-25 21:33N 32°52' E 034°60'7 7.2
2014-Aug-25 20:34N 32°54' E 034°52'8 8.2
2014-Aug-25 19:34N 32°56' E 034°42'8 8.3
2014-Aug-25 18:34N 32°58' E 034°32'8 8.4
2014-Aug-25 17:33N 33°01' E 034°23'8 8.3
2014-Aug-25 16:34N 33°01' E 034°13'9 8.6
2014-Aug-25 15:33N 33°01' E 034°03'9 9.2
2014-Aug-25 14:33N 33°04' E 033°52'9 9.4
2014-Aug-25 13:34N 33°08' E 033°42'9 8.7
2014-Aug-25 12:33N 33°12' E 033°33'8 8.5
2014-Aug-25 11:34N 33°16' E 033°24'9 8.5
2014-Aug-25 10:33N 33°20' E 033°15'8 8.5
2014-Aug-25 09:33N 33°24' E 033°06'8 8.5
2014-Aug-25 08:34N 33°28' E 032°57'8 8.3
2014-Aug-25 07:34N 33°32' E 032°49'8 8.3
2014-Aug-25 06:34N 33°36' E 032°40'8 8.4
2014-Aug-25 05:34N 33°40' E 032°31'9 8.6
2014-Aug-25 04:33N 33°44' E 032°21'8 8.4
2014-Aug-25 03:34N 33°48' E 032°13'8 8.3
2014-Aug-25 02:34N 33°51' E 032°04'8 8.2
2014-Aug-25 01:34N 33°55' E 031°55'8 8.1
2014-Aug-25 00:33N 33°59' E 031°46'8 8.3
2014-Aug-24 23:34N 34°03' E 031°38'10 8.4
2014-Aug-24 22:23N 34°08' E 031°27'7 8.2
2014-Aug-24 21:34N 34°11' E 031°20'8 8.3
2014-Aug-24 20:34N 34°14' E 031°11'8 8.2
2014-Aug-24 19:34N 34°18' E 031°02'8 8.5
2014-Aug-24 18:34N 34°22' E 030°53'9 8.6
2014-Aug-24 17:33N 34°27' E 030°44'123 8.1
2014-Aug-24 02:21N 35°26' E 028°32'17 7.6
2014-Aug-24 00:10N 35°33' E 028°14'14 8.0
2014-Aug-23 22:25N 35°39' E 027°59'7 7.6
2014-Aug-23 21:33N 35°41' E 027°51'8 8.1
2014-Aug-23 20:31N 35°45' E 027°42'10 8.3
2014-Aug-23 19:18N 35°50' E 027°31'129 8.2
2014-Aug-23 03:33N 36°13' E 024°54'9 9.3
2014-Aug-23 02:33N 36°14' E 024°43'9 9.3
2014-Aug-23 01:33N 36°15' E 024°31'9 9.2
2014-Aug-23 00:33N 36°16' E 024°20'9 8.9
2014-Aug-22 23:33N 36°17' E 024°09'9 8.6
2014-Aug-22 22:33N 36°18' E 023°58'10 8.3
2014-Aug-22 21:23N 36°19' E 023°46'7 8.3
2014-Aug-22 20:29N 36°19' E 023°37'  
Track history (hours):
 
Tides and Currents Weather Stations Pressure Air Temp Water Temp Dewpoint Dewpoint Depression Visibility Wind Speed Wind Dir Waves Ship Positions

Haci Arif Kaptan

Last reported at 2014-Aug-27 20:27 UTC. Time now 2014-Aug-29 10:24 UTC.
Position N 32°49' E 035°02'.

Length 130 m; draft 8.1 m.

Type: Ship. MMSI: 271000494.

Date/timePositionNaut miles runAvg speedWind from/ knotsBaromVisibWave heightAir tempDewpointWater temp
2014-Aug-27 20:27N 32°49' E 035°02'0 0.0
2014-Aug-27 19:30N 32°49' E 035°02'0 0.0
2014-Aug-27 18:21N 32°49' E 035°02'0 0.0
2014-Aug-27 17:24N 32°49' E 035°02'0 0.0
2014-Aug-27 16:33N 32°49' E 035°02'0 0.0
2014-Aug-27 14:27N 32°49' E 035°02'0 0.0
2014-Aug-27 09:24N 32°49' E 035°02'0 0.0
2014-Aug-26 23:12N 32°49' E 035°02'0 0.0
2014-Aug-26 22:15N 32°49' E 035°02'0 0.0
2014-Aug-26 21:33N 32°49' E 035°02'0 0.0
2014-Aug-26 20:32N 32°49' E 035°02'0 0.0
2014-Aug-26 18:26N 32°49' E 035°02'0 0.0
2014-Aug-26 17:29N 32°49' E 035°02'0 0.0
2014-Aug-26 16:29N 32°49' E 035°02'0 0.0
2014-Aug-26 15:32N 32°49' E 035°02'0 0.0
2014-Aug-26 14:26N 32°49' E 035°02'0 0.0
2014-Aug-26 03:11N 32°49' E 035°02'0 0.0
2014-Aug-26 02:33N 32°49' E 035°02'4 2.4
2014-Aug-26 01:04N 32°52' E 035°00'0 0.0
2014-Aug-26 00:31N 32°52' E 035°00'0 0.0
2014-Aug-25 22:26N 32°52' E 035°00'1 0.7
2014-Aug-25 21:33N 32°52' E 034°60'7 7.2
2014-Aug-25 20:34N 32°54' E 034°52'8 8.2
2014-Aug-25 19:34N 32°56' E 034°42'8 8.3
2014-Aug-25 18:34N 32°58' E 034°32'8 8.4
2014-Aug-25 17:33N 33°01' E 034°23'8 8.3
2014-Aug-25 16:34N 33°01' E 034°13'9 8.6
2014-Aug-25 15:33N 33°01' E 034°03'9 9.2
2014-Aug-25 14:33N 33°04' E 033°52'9 9.4
2014-Aug-25 13:34N 33°08' E 033°42'9 8.7
2014-Aug-25 12:33N 33°12' E 033°33'8 8.5
2014-Aug-25 11:34N 33°16' E 033°24'9 8.5
2014-Aug-25 10:33N 33°20' E 033°15'8 8.5
2014-Aug-25 09:33N 33°24' E 033°06'8 8.5
2014-Aug-25 08:34N 33°28' E 032°57'8 8.3
2014-Aug-25 07:34N 33°32' E 032°49'8 8.3
2014-Aug-25 06:34N 33°36' E 032°40'8 8.4
2014-Aug-25 05:34N 33°40' E 032°31'9 8.6
2014-Aug-25 04:33N 33°44' E 032°21'8 8.4
2014-Aug-25 03:34N 33°48' E 032°13'8 8.3
2014-Aug-25 02:34N 33°51' E 032°04'8 8.2
2014-Aug-25 01:34N 33°55' E 031°55'8 8.1
2014-Aug-25 00:33N 33°59' E 031°46'8 8.3
2014-Aug-24 23:34N 34°03' E 031°38'10 8.4
2014-Aug-24 22:23N 34°08' E 031°27'7 8.2
2014-Aug-24 21:34N 34°11' E 031°20'8 8.3
2014-Aug-24 20:34N 34°14' E 031°11'8 8.2
2014-Aug-24 19:34N 34°18' E 031°02'8 8.5
2014-Aug-24 18:34N 34°22' E 030°53'9 8.6
2014-Aug-24 17:33N 34°27' E 030°44'123 8.1
2014-Aug-24 02:21N 35°26' E 028°32'17 7.6
2014-Aug-24 00:10N 35°33' E 028°14'14 8.0
2014-Aug-23 22:25N 35°39' E 027°59'7 7.6
2014-Aug-23 21:33N 35°41' E 027°51'8 8.1
2014-Aug-23 20:31N 35°45' E 027°42'10 8.3
2014-Aug-23 19:18N 35°50' E 027°31'129 8.2
2014-Aug-23 03:33N 36°13' E 024°54'9 9.3
2014-Aug-23 02:33N 36°14' E 024°43'9 9.3
2014-Aug-23 01:33N 36°15' E 024°31'9 9.2
2014-Aug-23 00:33N 36°16' E 024°20'9 8.9
2014-Aug-22 23:33N 36°17' E 024°09'9 8.6
2014-Aug-22 22:33N 36°18' E 023°58'10 8.3
2014-Aug-22 21:23N 36°19' E 023°46'7 8.3
2014-Aug-22 20:29N 36°19' E 023°37'  

Dump ship's entire track history